7 * 24
多渠道服务支持
STARLINK-37547(NORAD编号68846)是美国SpaceX公司星链(Starlink)星座中的一颗低轨互联网通信卫星,隶属于星链大规模卫星组网计划。星链项目旨在构建覆盖全球的天基互联网系统,为偏远地区、地面网络覆盖不足区域提供高速互联网接入服务。该卫星运行在近地轨道,属于星链卫星网络的一部分,依托低轨轨道优势,可实现低延迟、高速率的数据通信传输,助力星链扩展全球网络覆盖范围,支撑星座整体通信容量与服务能力提升。
美国
(US)
| 数据来源 | 国际轨道数据 |
| 星历时间: | 2026-05-24T12:00:02+0800 1天前 查看轨道信息 |
| 半长轴: | 6797.186km |
| 偏心率: | 0.0000839 |
| 轨道倾角: | 97.285° |
| 近地点辐角 | 110.586° |
| 升交点赤经 | 158.872° |
| 平近点角 | 190.878° |
| 近地点: | 418.478km |
| 远地点: | 419.62km |
| 周期: | 92.951分钟 |
| 每日圈数: | 15.492058 |